When you browse on this site, cookies collect data to enhance your experience and personalize the content and advertising you see.
Visit our Privacy Policy to learn more. By continuing to use the site, you agree to this use of cookies and data.
  • In United Kingdom
  • List of Countries
  • For 7 days
  • Water Temperature
  • Satellite Maps
  • Weather Map
  • Weather Widgets
  • user-avatar
    Login

    Hourly Weather Leticia

    Today, 19 April, Friday

    Time Temperature Precipitation Wind Pressure Humidity
    00:00 +25°C° 0 mm 0 mps 750 mmHg 85%
    01:00 +24°C° 0 mm 0 mps 750 mmHg 87%
    02:00 +24°C° 0 mm 0 mps 750 mmHg 89%
    03:00 +24°C° 0 mm 0 mps 750 mmHg 91%
    04:00 +23°C° 0 mm 0 mps 750 mmHg 93%
    05:00 +24°C° 0 mm 0 mps 750 mmHg 91%
    06:00 +25°C° 0 mm 0 mps 751 mmHg 88%
    07:00 +26°C° 0 mm 0 mps 751 mmHg 85%
    08:00 +27°C° 0.8 mm 0 mps 751 mmHg 82%
    09:00 +31°C° 0.8 mm 1 mps 751 mmHg 78%
    10:00 +33°C° 0.8 mm 1 mps 752 mmHg 74%
    11:00 +33°C° 0.9 mm 1 mps 751 mmHg 71%
    12:00 +34°C° 0.9 mm 1 mps 750 mmHg 67%
    13:00 +35°C° 0.9 mm 1 mps 749 mmHg 63%
    14:00 +33°C° 1.2 mm 1 mps 748 mmHg 71%
    15:00 +32°C° 1.2 mm 1 mps 748 mmHg 78%
    16:00 +29°C° 1.2 mm 0 mps 747 mmHg 85%
    17:00 +28°C° 0.2 mm 0 mps 748 mmHg 88%
    18:00 +26°C° 0.2 mm 0 mps 749 mmHg 91%
    19:00 +25°C° 0.2 mm 0 mps 749 mmHg 94%
    20:00 +25°C° 0 mm 0 mps 750 mmHg 94%
    21:00 +25°C° 0 mm 0 mps 751 mmHg 94%
    22:00 +24°C° 0 mm 0 mps 751 mmHg 94%
    23:00 +26°C° 0 mm 1 mps 751 mmHg 95%

    Tomorrow, 20 April, Saturday

    Time Temperature Precipitation Wind Pressure Humidity
    00:00 +26°C° 0 mm 1 mps 751 mmHg 95%
    01:00 +26°C° 0 mm 1 mps 750 mmHg 95%
    02:00 +26°C° 0.1 mm 1 mps 750 mmHg 96%
    03:00 +26°C° 0.1 mm 1 mps 750 mmHg 96%
    04:00 +26°C° 0.1 mm 1 mps 750 mmHg 97%
    05:00 +24°C° 0 mm 0 mps 751 mmHg 96%
    06:00 +24°C° 0 mm 0 mps 751 mmHg 95%
    07:00 +25°C° 0 mm 0 mps 752 mmHg 94%
    08:00 +28°C° 1.6 mm 1 mps 752 mmHg 93%
    09:00 +29°C° 1.6 mm 1 mps 753 mmHg 92%
    10:00 +30°C° 1.6 mm 1 mps 753 mmHg 91%
    11:00 +30°C° 1.2 mm 1 mps 752 mmHg 88%
    12:00 +31°C° 1.2 mm 1 mps 751 mmHg 84%
    13:00 +31°C° 1.2 mm 1 mps 750 mmHg 81%
    14:00 +30°C° 0.9 mm 1 mps 750 mmHg 86%
    15:00 +27°C° 0.9 mm 0 mps 749 mmHg 91%
    16:00 +26°C° 0.9 mm 0 mps 749 mmHg 95%
    17:00 +26°C° 0 mm 0 mps 749 mmHg 96%
    18:00 +25°C° 0 mm 0 mps 750 mmHg 97%
    19:00 +25°C° 0 mm 0 mps 750 mmHg 97%
    20:00 +24°C° 0 mm 0 mps 751 mmHg 98%
    21:00 +24°C° 0 mm 0 mps 751 mmHg 98%
    22:00 +24°C° 0 mm 0 mps 752 mmHg 98%
    23:00 +24°C° 1.3 mm 0 mps 751 mmHg 98%

    Day after tomorrow, 21 April, Sunday

    Time Temperature Precipitation Wind Pressure Humidity
    00:00 +23°C° 1.3 mm 0 mps 751 mmHg 99%
    01:00 +23°C° 1.3 mm 0 mps 751 mmHg 99%
    02:00 +23°C° 0.4 mm 0 mps 751 mmHg 99%
    03:00 +23°C° 0.4 mm 0 mps 751 mmHg 99%
    04:00 +23°C° 0.4 mm 0 mps 751 mmHg 99%
    05:00 +23°C° 0.1 mm 0 mps 751 mmHg 99%
    06:00 +24°C° 0.1 mm 0 mps 752 mmHg 98%
    07:00 +24°C° 0.1 mm 0 mps 752 mmHg 98%
    08:00 +27°C° 0.1 mm 1 mps 752 mmHg 95%
    09:00 +28°C° 0.1 mm 1 mps 753 mmHg 91%
    10:00 +28°C° 0.1 mm 1 mps 753 mmHg 88%
    11:00 +30°C° 0 mm 1 mps 752 mmHg 79%
    12:00 +31°C° 0 mm 1 mps 751 mmHg 70%
    13:00 +33°C° 0 mm 1 mps 750 mmHg 61%
    14:00 +33°C° 0.1 mm 1 mps 749 mmHg 64%
    15:00 +32°C° 0.1 mm 1 mps 749 mmHg 67%
    16:00 +32°C° 0.1 mm 1 mps 748 mmHg 71%
    17:00 +28°C° 0 mm 0 mps 749 mmHg 76%
    18:00 +27°C° 0 mm 0 mps 749 mmHg 82%
    19:00 +25°C° 0 mm 0 mps 750 mmHg 88%
    20:00 +25°C° 0 mm 0 mps 750 mmHg 88%
    21:00 +25°C° 0 mm 0 mps 750 mmHg 89%
    22:00 +25°C° 0 mm 0 mps 751 mmHg 89%
    23:00 +24°C° 0.7 mm 0 mps 750 mmHg 92%

    22 April, Monday

    Time Temperature Precipitation Wind Pressure Humidity
    00:00 +24°C° 0.7 mm 0 mps 750 mmHg 95%
    01:00 +25°C° 0.7 mm 1 mps 750 mmHg 98%
    02:00 +23°C° 1 mm 0 mps 750 mmHg 98%
    03:00 +23°C° 1 mm 0 mps 750 mmHg 99%
    04:00 +23°C° 1 mm 0 mps 750 mmHg 99%
    05:00 +23°C° 0.7 mm 0 mps 750 mmHg 98%
    06:00 +23°C° 0.7 mm 0 mps 751 mmHg 98%
    07:00 +24°C° 0.7 mm 0 mps 751 mmHg 98%
    08:00 +24°C° 1 mm 0 mps 752 mmHg 98%
    09:00 +24°C° 1 mm 0 mps 752 mmHg 98%
    10:00 +24°C° 1 mm 0 mps 752 mmHg 98%
    11:00 +24°C° 0.9 mm 0 mps 751 mmHg 98%
    12:00 +24°C° 0.9 mm 0 mps 751 mmHg 97%
    13:00 +24°C° 0.9 mm 0 mps 750 mmHg 97%
    14:00 +24°C° 0.6 mm 0 mps 750 mmHg 96%
    15:00 +25°C° 0.6 mm 0 mps 749 mmHg 95%
    16:00 +27°C° 0.6 mm 1 mps 749 mmHg 94%
    17:00 +25°C° 0.2 mm 0 mps 750 mmHg 95%
    18:00 +24°C° 0.2 mm 0 mps 750 mmHg 97%
    19:00 +23°C° 0.2 mm 0 mps 750 mmHg 98%
    20:00 +23°C° 0.2 mm 0 mps 751 mmHg 98%
    21:00 +23°C° 0.2 mm 0 mps 751 mmHg 98%
    22:00 +23°C° 0.2 mm 0 mps 752 mmHg 98%
    23:00 +23°C° 0.6 mm 0 mps 751 mmHg 98%

    23 April, Tuesday

    Time Temperature Precipitation Wind Pressure Humidity
    00:00 +23°C° 0.6 mm 0 mps 751 mmHg 98%
    01:00 +22°C° 0.6 mm 0 mps 751 mmHg 99%
    02:00 +22°C° 0.6 mm 0 mps 751 mmHg 99%
    03:00 +22°C° 0.6 mm 0 mps 751 mmHg 99%
    04:00 +22°C° 0.6 mm 0 mps 750 mmHg 99%
    05:00 +23°C° 0.6 mm 0 mps 751 mmHg 99%
    06:00 +23°C° 0.6 mm 0 mps 752 mmHg 99%
    07:00 +23°C° 0.6 mm 0 mps 752 mmHg 99%
    08:00 +23°C° 1.6 mm 0 mps 752 mmHg 99%
    09:00 +23°C° 1.6 mm 0 mps 753 mmHg 99%
    10:00 +23°C° 1.6 mm 0 mps 753 mmHg 99%
    11:00 +24°C° 0.5 mm 0 mps 752 mmHg 96%
    12:00 +25°C° 0.5 mm 0 mps 752 mmHg 94%
    13:00 +26°C° 0.5 mm 0 mps 751 mmHg 91%
    14:00 +26°C° 0.4 mm 0 mps 751 mmHg 91%
    15:00 +26°C° 0.4 mm 0 mps 750 mmHg 90%
    16:00 +26°C° 0.4 mm 0 mps 750 mmHg 90%
    17:00 +25°C° 0.1 mm 0 mps 750 mmHg 93%
    18:00 +24°C° 0.1 mm 0 mps 751 mmHg 96%
    19:00 +23°C° 0.1 mm 0 mps 751 mmHg 99%
    20:00 +23°C° 0.1 mm 0 mps 752 mmHg 99%
    21:00 +23°C° 0.1 mm 0 mps 752 mmHg 99%
    22:00 +23°C° 0.1 mm 0 mps 752 mmHg 99%
    23:00 +23°C° 0 mm 0 mps 752 mmHg 99%

    24 April, Wednesday

    Time Temperature Precipitation Wind Pressure Humidity
    00:00 +22°C° 0 mm 0 mps 752 mmHg 99%
    01:00 +22°C° 0 mm 0 mps 751 mmHg 99%
    02:00 +22°C° 0 mm 0 mps 751 mmHg 99%
    03:00 +22°C° 0 mm 0 mps 751 mmHg 99%
    04:00 +22°C° 0 mm 0 mps 751 mmHg 99%
    05:00 +22°C° 0 mm 0 mps 752 mmHg 98%
    06:00 +23°C° 0 mm 0 mps 753 mmHg 97%
    07:00 +23°C° 0 mm 0 mps 753 mmHg 96%
    08:00 +25°C° 0 mm 0 mps 753 mmHg 88%
    09:00 +27°C° 0 mm 0 mps 753 mmHg 79%
    10:00 +30°C° 0 mm 1 mps 753 mmHg 71%
    11:00 +30°C° 0.6 mm 1 mps 753 mmHg 76%
    12:00 +30°C° 0.6 mm 1 mps 752 mmHg 81%
    13:00 +30°C° 0.6 mm 1 mps 751 mmHg 86%
    14:00 +30°C° 0.7 mm 1 mps 750 mmHg 88%
    15:00 +29°C° 0.7 mm 1 mps 750 mmHg 90%
    16:00 +29°C° 0.7 mm 1 mps 749 mmHg 92%
    17:00 +26°C° 0.4 mm 0 mps 750 mmHg 94%
    18:00 +25°C° 0.4 mm 0 mps 750 mmHg 96%
    19:00 +24°C° 0.4 mm 0 mps 751 mmHg 98%
    20:00 +24°C° 0.5 mm 0 mps 751 mmHg 98%
    21:00 +24°C° 0.5 mm 0 mps 752 mmHg 98%
    22:00 +24°C° 0.5 mm 0 mps 752 mmHg 98%
    23:00 +24°C° 0.5 mm 0 mps 752 mmHg 98%
    Show more